Location: Narrabri
(30.3170°S, 149.7830°E)
Time: 04:01:50
(UTC+11:00)

N. Korean satellite - Pass Details

Date: 14 October 2017
Orbit: 459 x 517 km, 97.2° (Epoch: 16 October)

Event Time Altitude Azimuth Distance (km) Brightness Sun altitude
Rises 19:53:34 0° 173° (S) 2,667 10.4 -9.9°
Reaches altitude 10° 19:55:43 10° 176° (S) 1,768 9.6 -10.4°
Maximum altitude 19:59:30 65° 257° (WSW) 574 7.2 -11.2°
Drops below altitude 10° 20:03:11 10° 339° (NNW) 1,722 9.4 -11.9°
Sets 20:05:15 0° 342° (NNW) 2,591 10.3 -12.3°
